,,Stat5,,Stat1,,Stat2,,Stat3,,Stat4,,Wind1,,Wind1,
time,status,PA1M_AVG,status,PR1M_SUM,status,RH1M_AVG,status,SR1M_AVG,status,TA1M_AVG,status,W1dAve1m,status,W1sAve1m,
2001-04-09, 00:00:00,VALID,918.069,VALID,0,VALID,97.7355,VALID,0,VALID,19.6227,VALID,210,VALID,0.00102796,
2001-04-09, 00:01:00,VALID,918.042,VALID,0,VALID,97.6249,VALID,0,VALID,19.5936,VALID,235,VALID,0,
2001-04-09, 00:02:00,VALID,918.042,VALID,0,VALID,97.6389,VALID,0,VALID,19.5839,VALID,235,VALID,0,
2001-04-09, 00:03:00,VALID,918.032,VALID,0,VALID,97.677,VALID,0.0169808,VALID,19.5869,VALID,235,VALID,0,
2001-04-09, 00:04:00,VALID,918.031,VALID,0,VALID,97.7012,VALID,0.0169808,VALID,19.5834,VALID,223,VALID,0,
2001-04-09, 00:05:00,VALID,918.031,VALID,0,VALID,97.6707,VALID,0,VALID,19.5837,VALID,154,VALID,0,
2001-04-09, 00:06:00,VALID,918.026,VALID,0,VALID,97.6402,VALID,0,VALID,19.5777,VALID,123,VALID,0,
2001-04-09, 00:07:00,VALID,918.038,VALID,0,VALID,97.6503,VALID,0,VALID,19.5613,VALID,123,VALID,0,
2001-04-09, 00:08:00,VALID,918.044,VALID,0,VALID,97.733,VALID,0,VALID,19.5546,VALID,123,VALID,0,
2001-04-09, 00:09:00,VALID,918.032,VALID,0,VALID,97.822,VALID,0,VALID,19.5678,VALID,123,VALID,0,
2001-04-09, 00:10:00,VALID,918.036,VALID,0,VALID,97.8665,VALID,0.0169808,VALID,19.5742,VALID,123,VALID,0,
2001-04-09, 00:11:00,VALID,918.028,VALID,0,VALID,97.8678,VALID,0,VALID,19.5675,VALID,123,VALID,0,
2001-04-09, 00:12:00,VALID,918.026,VALID,0,VALID,97.7381,VALID,0,VALID,19.5481,VALID,123,VALID,0,
2001-04-09, 00:13:00,VALID,918.026,VALID,0,VALID,97.6999,VALID,-0.0169808,VALID,19.5318,VALID,123,VALID,0,
2001-04-09, 00:14:00,VALID,918.015,VALID,0,VALID,97.7037,VALID,0,VALID,19.5322,VALID,123,VALID,0,
2001-04-09, 00:15:00,VALID,918.028,VALID,0,VALID,97.7063,VALID,0,VALID,19.5352,VALID,123,VALID,0,
2001-04-09, 00:16:00,VALID,918.03,VALID,0,VALID,97.6961,VALID,0,VALID,19.5385,VALID,123,VALID,0,
2001-04-09, 00:17:00,VALID,918.044,VALID,0,VALID,97.7025,VALID,-0.0169808,VALID,19.5385,VALID,123,VALID,0,
2001-04-09, 00:18:00,VALID,918.058,VALID,0,VALID,97.6961,VALID,0,VALID,19.5417,VALID,123,VALID,0,
2001-04-09, 00:19:00,VALID,918.038,VALID,0,VALID,97.8271,VALID,0.0169808,VALID,19.5643,VALID,118,VALID,0,
2001-04-09, 00:20:00,VALID,918.028,VALID,0,VALID,97.8767,VALID,-0.0169808,VALID,19.5772,VALID,116,VALID,0,
2001-04-09, 00:21:00,VALID,918.037,VALID,0,VALID,97.8373,VALID,-0.0169808,VALID,19.5809,VALID,103,VALID,0,
2001-04-09, 00:22:00,VALID,918.042,VALID,0,VALID,97.7622,VALID,-0.0169808,VALID,19.5417,VALID,89,VALID,0,
2001-04-09, 00:23:00,VALID,918.033,VALID,0,VALID,97.6414,VALID,-0.0169808,VALID,19.5064,VALID,92,VALID,0,
2001-04-09, 00:24:00,VALID,918.022,VALID,0,VALID,97.6122,VALID,0,VALID,19.4642,VALID,94,VALID,0,
2001-04-09, 00:25:00,VALID,918.021,VALID,0,VALID,97.527,VALID,0,VALID,19.4386,VALID,41,VALID,0,
2001-04-09, 00:26:00,VALID,918.016,VALID,0,VALID,97.3413,VALID,-0.0169808,VALID,19.4324,VALID,318,VALID,0,
2001-04-09, 00:27:00,VALID,918.022,VALID,0,VALID,97.1201,VALID,0,VALID,19.4386,VALID,314,VALID,0,
2001-04-09, 00:28:00,VALID,918.008,VALID,0,VALID,97.0756,VALID,0.0169808,VALID,19.4676,VALID,314,VALID,0,
2001-04-09, 00:29:00,VALID,917.989,VALID,0,VALID,97.1061,VALID,0,VALID,19.5096,VALID,322,VALID,0,
2001-04-09, 00:30:00,VALID,917.977,VALID,0.2,VALID,96.9471,VALID,0,VALID,19.5027,VALID,55,VALID,0,
2001-04-09, 00:31:00,VALID,917.971,VALID,0,VALID,96.38,VALID,-0.0169808,VALID,19.5226,VALID,65,VALID,0,
2001-04-09, 00:32:00,VALID,917.935,VALID,0,VALID,96.1715,VALID,0.0169808,VALID,19.5355,VALID,85,VALID,0.518709,
2001-04-09, 00:33:00,VALID,917.922,VALID,0,VALID,96.0621,VALID,0,VALID,19.5226,VALID,92,VALID,0.990385,
2001-04-09, 00:34:00,VALID,917.898,VALID,0,VALID,96.1816,VALID,0.0169808,VALID,19.5193,VALID,97,VALID,0.567773,
2001-04-09, 00:35:00,VALID,917.885,VALID,0,VALID,96.319,VALID,0,VALID,19.5004,VALID,95,VALID,0,
2001-04-09, 00:36:00,VALID,917.891,VALID,0,VALID,96.3469,VALID,0,VALID,19.4835,VALID,335,VALID,0.2125,
2001-04-09, 00:37:00,VALID,917.891,VALID,0,VALID,96.1626,VALID,0,VALID,19.4644,VALID,279,VALID,0.417268,
2001-04-09, 00:38:00,VALID,917.896,VALID,0,VALID,96.0786,VALID,0,VALID,19.4522,VALID,265,VALID,0.253906,
2001-04-09, 00:39:00,VALID,917.875,VALID,0,VALID,96.0392,VALID,0,VALID,19.448,VALID,264,VALID,0.00240385,
2001-04-09, 00:40:00,VALID,917.862,VALID,0,VALID,96.38,VALID,-0.0169808,VALID,19.4743,VALID,149,VALID,0.392064,
2001-04-09, 00:41:00,VALID,917.836,VALID,0,VALID,96.6305,VALID,-0.0169808,VALID,19.5066,VALID,104,VALID,1.10457,
2001-04-09, 00:42:00,VALID,917.8,VALID,0,VALID,96.731,VALID,0,VALID,19.5327,VALID,96,VALID,0.866016,
2001-04-09, 00:43:00,VALID,917.792,VALID,0,VALID,96.7551,VALID,-0.0339617,VALID,19.5228,VALID,87,VALID,0.321157,
2001-04-09, 00:44:00,VALID,917.766,VALID,0,VALID,96.6826,VALID,0,VALID,19.5037,VALID,85,VALID,0.0578125,
2001-04-09, 00:45:00,VALID,917.764,VALID,0,VALID,96.7488,VALID,0,VALID,19.4905,VALID,88,VALID,0.120192,
2001-04-09, 00:46:00,VALID,917.736,VALID,0,VALID,96.7564,VALID,0,VALID,19.4974,VALID,341,VALID,0.249794,
2001-04-09, 00:47:00,VALID,917.739,VALID,0,VALID,96.6903,VALID,-0.0339617,VALID,19.4778,VALID,309,VALID,0.524639,
2001-04-09, 00:48:00,VALID,917.736,VALID,0.2,VALID,96.8289,VALID,-0.0169808,VALID,19.4711,VALID,294,VALID,0.249383,
2001-04-09, 00:49:00,VALID,917.709,VALID,0,VALID,97.1035,VALID,0,VALID,19.4778,VALID,297,VALID,0.152244,
2001-04-09, 00:50:00,VALID,917.674,VALID,0,VALID,97.349,VALID,-0.0169808,VALID,19.4644,VALID,297,VALID,0,
2001-04-09, 00:51:00,VALID,917.66,VALID,0,VALID,97.5461,VALID,-0.0169808,VALID,19.4873,VALID,51,VALID,0.0990287,
2001-04-09, 00:52:00,VALID,917.639,VALID,0,VALID,97.7432,VALID,0,VALID,19.5007,VALID,92,VALID,0.0140625,
2001-04-09, 00:53:00,VALID,917.628,VALID,0,VALID,97.869,VALID,-0.0339617,VALID,19.5198,VALID,97,VALID,0.00120192,
2001-04-09, 00:54:00,VALID,917.608,VALID,0,VALID,97.9326,VALID,-0.0169808,VALID,19.5198,VALID,105,VALID,0,
2001-04-09, 00:55:00,VALID,917.591,VALID,0,VALID,97.953,VALID,-0.0679233,VALID,19.5134,VALID,105,VALID,0,
2001-04-09, 00:56:00,VALID,917.594,VALID,0,VALID,97.9631,VALID,-0.0339617,VALID,19.5069,VALID,105,VALID,0,
2001-04-09, 00:57:00,VALID,917.571,VALID,0,VALID,97.9771,VALID,-0.0509425,VALID,19.494,VALID,105,VALID,0,
2001-04-09, 00:58:00,VALID,917.567,VALID,0,VALID,98.0293,VALID,-0.0169808,VALID,19.4907,VALID,105,VALID,0,
2001-04-09, 00:59:00,VALID,917.547,VALID,0,VALID,98.1094,VALID,-0.0339617,VALID,19.4967,VALID,105,VALID,0,
2001-04-09, 01:00:00,VALID,917.547,VALID,0,VALID,98.1208,VALID,-0.0339617,VALID,19.5002,VALID,105,VALID,0,
2001-04-09, 01:01:00,VALID,917.532,VALID,0,VALID,98.0865,VALID,0,VALID,19.494,VALID,105,VALID,0,
2001-04-09, 01:02:00,VALID,917.513,VALID,0,VALID,98.0814,VALID,-0.0169808,VALID,19.4845,VALID,105,VALID,0,
2001-04-09, 01:03:00,VALID,917.497,VALID,0,VALID,98.0814,VALID,-0.0169808,VALID,19.4716,VALID,118,VALID,0,
2001-04-09, 01:04:00,VALID,917.478,VALID,0,VALID,98.0178,VALID,0,VALID,19.4515,VALID,177,VALID,0.304688,
2001-04-09, 01:05:00,VALID,917.454,VALID,0,VALID,97.9275,VALID,0,VALID,19.4127,VALID,177,VALID,0.438101,
2001-04-09, 01:06:00,VALID,917.452,VALID,0,VALID,97.8601,VALID,0,VALID,19.3839,VALID,155,VALID,0.694531,
2001-04-09, 01:07:00,VALID,917.421,VALID,0,VALID,97.883,VALID,0,VALID,19.3578,VALID,158,VALID,0.755701,
2001-04-09, 01:08:00,VALID,917.404,VALID,0,VALID,97.8182,VALID,0,VALID,19.3613,VALID,166,VALID,0.604492,
2001-04-09, 01:09:00,VALID,917.384,VALID,0,VALID,97.677,VALID,-0.0169808,VALID,19.3327,VALID,172,VALID,0.52504,
2001-04-09, 01:10:00,VALID,917.364,VALID,0,VALID,97.6592,VALID,-0.0679233,VALID,19.3166,VALID,191,VALID,0.4375,
2001-04-09, 01:11:00,VALID,917.358,VALID,0,VALID,97.7292,VALID,-0.0339617,VALID,19.3168,VALID,198,VALID,0.406651,
2001-04-09, 01:12:00,VALID,917.333,VALID,0.2,VALID,97.7838,VALID,-0.0339617,VALID,19.3133,VALID,186,VALID,0.389597,
2001-04-09, 01:13:00,VALID,917.296,VALID,0,VALID,97.8538,VALID,-0.0339617,VALID,19.3066,VALID,192,VALID,0.382813,
2001-04-09, 01:14:00,VALID,917.28,VALID,0,VALID,97.8779,VALID,-0.0339617,VALID,19.2999,VALID,184,VALID,0.528125,
2001-04-09, 01:15:00,VALID,917.268,VALID,0,VALID,97.9021,VALID,-0.0169808,VALID,19.3069,VALID,183,VALID,0.525127,
2001-04-09, 01:16:00,VALID,917.255,VALID,0,VALID,97.9288,VALID,-0.0509425,VALID,19.3071,VALID,184,VALID,0.546094,
2001-04-09, 01:17:00,VALID,917.24,VALID,0,VALID,97.9606,VALID,-0.0339617,VALID,19.2974,VALID,179,VALID,0.352364,
2001-04-09, 01:18:00,VALID,917.211,VALID,0,VALID,98.0191,VALID,-0.0339617,VALID,19.2969,VALID,174,VALID,0.378906,
2001-04-09, 01:19:00,VALID,917.201,VALID,0,VALID,98.0496,VALID,-0.0169808,VALID,19.3036,VALID,173,VALID,0.453125,
2001-04-09, 01:20:00,VALID,917.183,VALID,0,VALID,98.0801,VALID,0,VALID,19.2801,VALID,174,VALID,0.525082,
2001-04-09, 01:21:00,VALID,917.165,VALID,0,VALID,98.1768,VALID,-0.0169808,VALID,19.2902,VALID,188,VALID,0.843349,
2001-04-09, 01:22:00,VALID,917.149,VALID,0,VALID,98.2874,VALID,-0.0169808,VALID,19.2967,VALID,188,VALID,0.84668,
2001-04-09, 01:23:00,VALID,917.13,VALID,0,VALID,98.3586,VALID,0,VALID,19.3064,VALID,203,VALID,0.735642,
2001-04-09, 01:24:00,VALID,917.11,VALID,0,VALID,98.4146,VALID,0,VALID,19.3101,VALID,200,VALID,0.718359,
2001-04-09, 01:25:00,VALID,917.083,VALID,0,VALID,98.4743,VALID,-0.0169808,VALID,19.2964,VALID,211,VALID,0.59395,
2001-04-09, 01:26:00,VALID,917.094,VALID,0,VALID,98.529,VALID,0,VALID,19.3064,VALID,196,VALID,1.16262,
2001-04-09, 01:27:00,VALID,917.07,VALID,0,VALID,98.5557,VALID,0,VALID,19.3006,VALID,193,VALID,1.1883,
2001-04-09, 01:28:00,VALID,917.064,VALID,0,VALID,98.6104,VALID,-0.0169808,VALID,19.287,VALID,195,VALID,1.09231,
2001-04-09, 01:29:00,VALID,917.048,VALID,0,VALID,98.6727,VALID,0,VALID,19.2835,VALID,192,VALID,1.11558,
2001-04-09, 01:30:00,VALID,917.047,VALID,0,VALID,98.7185,VALID,0.0169808,VALID,19.2905,VALID,226,VALID,0.680078,
2001-04-09, 01:31:00,VALID,917.034,VALID,0,VALID,98.7732,VALID,0,VALID,19.2932,VALID,214,VALID,1.41132,
2001-04-09, 01:32:00,VALID,917.004,VALID,0,VALID,98.81,VALID,0,VALID,19.2964,VALID,194,VALID,1.09863,
2001-04-09, 01:33:00,VALID,916.981,VALID,0,VALID,98.8444,VALID,0,VALID,19.3099,VALID,201,VALID,0.369792,
2001-04-09, 01:34:00,VALID,916.963,VALID,0,VALID,98.8851,VALID,-0.0169808,VALID,19.3195,VALID,218,VALID,0.750206,
2001-04-09, 01:35:00,VALID,916.945,VALID,0,VALID,98.8952,VALID,0,VALID,19.3198,VALID,206,VALID,0.876402,
2001-04-09, 01:36:00,VALID,916.917,VALID,0,VALID,98.9143,VALID,0,VALID,19.3228,VALID,217,VALID,0.823808,
2001-04-09, 01:37:00,VALID,916.912,VALID,0,VALID,98.9054,VALID,-0.0169808,VALID,19.3099,VALID,229,VALID,0.640825,
2001-04-09, 01:38:00,VALID,916.896,VALID,0,VALID,98.9219,VALID,0,VALID,19.2999,VALID,229,VALID,0.665234,
2001-04-09, 01:39:00,VALID,916.88,VALID,0,VALID,98.9334,VALID,-0.0169808,VALID,19.3066,VALID,211,VALID,0.652449,
2001-04-09, 01:40:00,VALID,916.845,VALID,0,VALID,98.9321,VALID,-0.0169808,VALID,19.2937,VALID,177,VALID,0.769727,
2001-04-09, 01:41:00,VALID,916.813,VALID,0,VALID,98.9436,VALID,0,VALID,19.2942,VALID,169,VALID,0.649439,
2001-04-09, 01:42:00,VALID,916.802,VALID,0,VALID,98.9372,VALID,-0.0169808,VALID,19.2609,VALID,152,VALID,0.542558,
2001-04-09, 01:43:00,VALID,916.778,VALID,0,VALID,98.9525,VALID,0,VALID,19.2512,VALID,191,VALID,0.153446,
2001-04-09, 01:44:00,VALID,916.761,VALID,0,VALID,98.9614,VALID,-0.0169808,VALID,19.2482,VALID,176,VALID,0,
2001-04-09, 01:45:00,VALID,916.745,VALID,0,VALID,98.9563,VALID,-0.0169808,VALID,19.2286,VALID,183,VALID,0.000200321,
2001-04-09, 01:46:00,VALID,916.746,VALID,0,VALID,98.9575,VALID,-0.0169808,VALID,19.2293,VALID,242,VALID,0.531836,
2001-04-09, 01:47:00,VALID,916.737,VALID,0,VALID,98.9486,VALID,0,VALID,19.2127,VALID,229,VALID,0.633446,
2001-04-09, 01:48:00,VALID,916.727,VALID,0,VALID,98.9448,VALID,0,VALID,19.2062,VALID,230,VALID,0.358789,
2001-04-09, 01:49:00,VALID,916.727,VALID,0,VALID,98.941,VALID,0,VALID,19.21,VALID,180,VALID,0.525586,
2001-04-09, 01:50:00,VALID,916.714,VALID,0,VALID,98.9397,VALID,0.0169808,VALID,19.1998,VALID,163,VALID,0.761719,
2001-04-09, 01:51:00,VALID,916.723,VALID,0,VALID,98.9372,VALID,0,VALID,19.203,VALID,172,VALID,0.411058,
2001-04-09, 01:52:00,VALID,916.694,VALID,0,VALID,98.9436,VALID,0,VALID,19.1998,VALID,197,VALID,0.183799,
2001-04-09, 01:53:00,VALID,916.689,VALID,0,VALID,98.9397,VALID,0,VALID,19.2129,VALID,195,VALID,0.568309,
2001-04-09, 01:54:00,VALID,916.673,VALID,0,VALID,98.9346,VALID,-0.0169808,VALID,19.1998,VALID,200,VALID,0.417578,
2001-04-09, 01:55:00,VALID,916.675,VALID,0,VALID,98.9346,VALID,0,VALID,19.1995,VALID,174,VALID,0.339527,
2001-04-09, 01:56:00,VALID,916.671,VALID,0,VALID,98.9118,VALID,0,VALID,19.1901,VALID,164,VALID,0.740039,
2001-04-09, 01:57:00,VALID,916.662,VALID,0,VALID,98.9296,VALID,-0.0169808,VALID,19.1836,VALID,126,VALID,0.744992,
2001-04-09, 01:58:00,VALID,916.64,VALID,0,VALID,98.9321,VALID,0,VALID,19.1774,VALID,121,VALID,0.748766,
2001-04-09, 01:59:00,VALID,916.611,VALID,0,VALID,98.941,VALID,-0.0339617,VALID,19.1645,VALID,118,VALID,0.868389,
2001-04-09, 02:00:00,VALID,916.606,VALID,0,VALID,98.9512,VALID,0,VALID,19.1645,VALID,127,VALID,0.733964,
2001-04-09, 02:01:00,VALID,916.585,VALID,0,VALID,98.9372,VALID,0,VALID,19.1449,VALID,138,VALID,0.594151,
2001-04-09, 02:02:00,VALID,916.573,VALID,0,VALID,98.9308,VALID,0,VALID,19.132,VALID,141,VALID,0.527148,
2001-04-09, 02:03:00,VALID,916.541,VALID,0,VALID,98.9105,VALID,-0.0509425,VALID,19.119,VALID,148,VALID,0.522382,
2001-04-09, 02:04:00,VALID,916.533,VALID,0,VALID,98.9054,VALID,0,VALID,19.1158,VALID,152,VALID,0.332031,
2001-04-09, 02:05:00,VALID,916.526,VALID,0,VALID,98.894,VALID,0,VALID,19.116,VALID,154,VALID,0.480168,
2001-04-09, 02:06:00,VALID,916.514,VALID,0,VALID,98.8545,VALID,0.0169808,VALID,19.1034,VALID,158,VALID,0.429688,
2001-04-09, 02:07:00,VALID,916.506,VALID,0,VALID,98.8723,VALID,-0.0169808,VALID,19.1225,VALID,123,VALID,0.533053,
2001-04-09, 02:08:00,VALID,916.484,VALID,0,VALID,98.8596,VALID,-0.0169808,VALID,19.1257,VALID,116,VALID,0.573808,
2001-04-09, 02:09:00,VALID,916.482,VALID,0,VALID,98.8189,VALID,0,VALID,19.1195,VALID,115,VALID,0.491987,
2001-04-09, 02:10:00,VALID,916.454,VALID,0,VALID,98.7541,VALID,-0.0169808,VALID,19.0967,VALID,126,VALID,0.266992,
2001-04-09, 02:11:00,VALID,916.424,VALID,0,VALID,98.6689,VALID,-0.0169808,VALID,19.0778,VALID,131,VALID,0.361064,
2001-04-09, 02:12:00,VALID,916.417,VALID,0,VALID,98.6384,VALID,0,VALID,19.0674,VALID,117,VALID,0.367188,
2001-04-09, 02:13:00,VALID,916.414,VALID,0,VALID,98.6078,VALID,0,VALID,19.0773,VALID,95,VALID,0.358373,
2001-04-09, 02:14:00,VALID,916.397,VALID,0,VALID,98.5722,VALID,0,VALID,19.0736,VALID,95,VALID,0.0232319,
2001-04-09, 02:15:00,VALID,916.391,VALID,0,VALID,98.5227,VALID,-0.0169808,VALID,19.0681,VALID,103,VALID,0.00260417,
2001-04-09, 02:16:00,VALID,916.383,VALID,0,VALID,98.4718,VALID,-0.0169808,VALID,19.045,VALID,108,VALID,0.00185033,
2001-04-09, 02:17:00,VALID,916.374,VALID,0,VALID,98.4527,VALID,0,VALID,19.0515,VALID,113,VALID,0.182292,
2001-04-09, 02:18:00,VALID,916.376,VALID,0,VALID,98.4146,VALID,-0.0169808,VALID,19.0355,VALID,148,VALID,0.392383,
2001-04-09, 02:19:00,VALID,916.364,VALID,0,VALID,98.3523,VALID,-0.0339617,VALID,19.0162,VALID,171,VALID,0.621199,
2001-04-09, 02:20:00,VALID,916.355,VALID,0,VALID,98.3917,VALID,-0.0169808,VALID,19,VALID,174,VALID,0.633984,
2001-04-09, 02:21:00,VALID,916.332,VALID,0,VALID,98.4171,VALID,0,VALID,19.0032,VALID,160,VALID,0.605569,
2001-04-09, 02:22:00,VALID,916.316,VALID,0,VALID,98.4298,VALID,0,VALID,18.9938,VALID,135,VALID,0.669819,
2001-04-09, 02:23:00,VALID,916.307,VALID,0,VALID,98.4146,VALID,-0.0169808,VALID,18.9936,VALID,120,VALID,0.652845,
2001-04-09, 02:24:00,VALID,916.305,VALID,0,VALID,98.4324,VALID,-0.0339617,VALID,18.9973,VALID,133,VALID,0.528988,
2001-04-09, 02:25:00,VALID,916.304,VALID,0,VALID,98.3421,VALID,-0.0849042,VALID,18.9776,VALID,164,VALID,0.486979,
2001-04-09, 02:26:00,VALID,916.284,VALID,0,VALID,98.2111,VALID,-0.0339617,VALID,18.9488,VALID,168,VALID,0.406836,
2001-04-09, 02:27:00,VALID,916.28,VALID,0,VALID,98.2416,VALID,-0.0509425,VALID,18.9257,VALID,159,VALID,0.293708,
2001-04-09, 02:28:00,VALID,916.261,VALID,0,VALID,98.178,VALID,-0.0169808,VALID,18.913,VALID,137,VALID,0.497266,
2001-04-09, 02:29:00,VALID,916.258,VALID,0,VALID,98.2098,VALID,-0.0509425,VALID,18.9133,VALID,126,VALID,0.437099,
2001-04-09, 02:30:00,VALID,916.245,VALID,0,VALID,98.2327,VALID,-0.0509425,VALID,18.9098,VALID,124,VALID,0.464433,
2001-04-09, 02:31:00,VALID,916.239,VALID,0,VALID,98.2798,VALID,-0.0679233,VALID,18.9163,VALID,124,VALID,0.474159,
2001-04-09, 02:32:00,VALID,916.222,VALID,0,VALID,98.295,VALID,0,VALID,18.9163,VALID,129,VALID,0.725535,
2001-04-09, 02:33:00,VALID,916.194,VALID,0,VALID,98.2696,VALID,-0.0169808,VALID,18.8967,VALID,137,VALID,0.698518,
2001-04-09, 02:34:00,VALID,916.181,VALID,0,VALID,98.2353,VALID,-0.0339617,VALID,18.8877,VALID,151,VALID,0.703125,
2001-04-09, 02:35:00,VALID,916.153,VALID,0,VALID,98.2149,VALID,-0.0339617,VALID,18.8554,VALID,170,VALID,0.714949,
2001-04-09, 02:36:00,VALID,916.152,VALID,0,VALID,98.262,VALID,-0.0849042,VALID,18.8295,VALID,160,VALID,0.447852,
2001-04-09, 02:37:00,VALID,916.133,VALID,0,VALID,98.3243,VALID,-0.0169808,VALID,18.8263,VALID,135,VALID,0.405649,
2001-04-09, 02:38:00,VALID,916.135,VALID,0,VALID,98.3599,VALID,-0.0849042,VALID,18.8136,VALID,145,VALID,0.658717,
2001-04-09, 02:39:00,VALID,916.126,VALID,0,VALID,98.3739,VALID,-0.0849042,VALID,18.7943,VALID,146,VALID,0.519431,
2001-04-09, 02:40:00,VALID,916.128,VALID,0,VALID,98.3764,VALID,-0.101885,VALID,18.7906,VALID,157,VALID,0.645354,
2001-04-09, 02:41:00,VALID,916.124,VALID,0,VALID,98.3243,VALID,-0.0679233,VALID,18.7813,VALID,159,VALID,0.572516,
2001-04-09, 02:42:00,VALID,916.113,VALID,0,VALID,98.2989,VALID,-0.0509425,VALID,18.7751,VALID,175,VALID,0.750391,
2001-04-09, 02:43:00,VALID,916.092,VALID,0,VALID,98.2887,VALID,-0.0509425,VALID,18.7622,VALID,165,VALID,0.427787,
2001-04-09, 02:44:00,VALID,916.087,VALID,0,VALID,98.3141,VALID,-0.0339617,VALID,18.765,VALID,163,VALID,0.326562,
2001-04-09, 02:45:00,VALID,916.072,VALID,0,VALID,98.2887,VALID,-0.0169808,VALID,18.7583,VALID,175,VALID,0.20613,
2001-04-09, 02:46:01,VALID,916.058,VALID,0,VALID,98.2416,VALID,-0.0679233,VALID,18.7553,VALID,173,VALID,0.210321,
2001-04-09, 02:47:00,VALID,916.053,VALID,0,VALID,98.2022,VALID,-0.0509425,VALID,18.746,VALID,173,VALID,0.340946,
2001-04-09, 02:48:00,VALID,916.039,VALID,0,VALID,98.1742,VALID,-0.0849042,VALID,18.7493,VALID,172,VALID,0.400082,
2001-04-09, 02:49:00,VALID,916.019,VALID,0,VALID,98.1463,VALID,-0.0679233,VALID,18.7391,VALID,172,VALID,0.361779,
2001-04-09, 02:50:00,VALID,916.007,VALID,0,VALID,98.145,VALID,-0.0679233,VALID,18.7458,VALID,168,VALID,0.4,
2001-04-09, 02:51:00,VALID,916.004,VALID,0,VALID,98.1259,VALID,-0.101885,VALID,18.7458,VALID,166,VALID,0.483953,
2001-04-09, 02:52:00,VALID,916.018,VALID,0,VALID,98.1208,VALID,0,VALID,18.7453,VALID,167,VALID,0.361914,
2001-04-09, 02:53:00,VALID,916.021,VALID,0,VALID,98,VALID,0.0339617,VALID,18.7414,VALID,174,VALID,0.527845,
2001-04-09, 02:54:00,VALID,916.02,VALID,0,VALID,97.972,VALID,0.0509425,VALID,18.7282,VALID,175,VALID,0.491776,
2001-04-09, 02:55:00,VALID,916.007,VALID,0,VALID,97.7889,VALID,0,VALID,18.7121,VALID,180,VALID,0.688902,
2001-04-09, 02:56:00,VALID,915.981,VALID,0,VALID,97.6147,VALID,0.0169808,VALID,18.696,VALID,184,VALID,0.825452,
2001-04-09, 02:57:00,VALID,915.974,VALID,0,VALID,97.162,VALID,0.0169808,VALID,18.6798,VALID,188,VALID,1.01242,
2001-04-09, 02:58:00,VALID,915.96,VALID,0,VALID,96.9268,VALID,0,VALID,18.696,VALID,190,VALID,0.895117,
2001-04-09, 02:59:00,VALID,915.953,VALID,0,VALID,97.0336,VALID,0.0849042,VALID,18.7449,VALID,202,VALID,0.415329,
2001-04-09, 03:00:00,VALID,915.939,VALID,0,VALID,97.0934,VALID,0.0679233,VALID,18.7702,VALID,190,VALID,0.827539,
2001-04-09, 03:01:00,VALID,915.93,VALID,0,VALID,97.1366,VALID,0.0339617,VALID,18.7831,VALID,188,VALID,1.27624,
2001-04-09, 03:02:01,VALID,915.922,VALID,0,VALID,97.0845,VALID,0,VALID,18.7831,VALID,189,VALID,1.29235,
2001-04-09, 03:03:00,VALID,915.931,VALID,0,VALID,97.0489,VALID,0.0679233,VALID,18.7928,VALID,196,VALID,1.25741,
2001-04-09, 03:04:00,VALID,915.93,VALID,0,VALID,97.129,VALID,0.0509425,VALID,18.7961,VALID,204,VALID,0.603413,
2001-04-09, 03:05:00,VALID,915.921,VALID,0,VALID,97.2688,VALID,0.0169808,VALID,18.803,VALID,212,VALID,0.827925,
2001-04-09, 03:06:00,VALID,915.931,VALID,0,VALID,97.293,VALID,0.0169808,VALID,18.8125,VALID,200,VALID,1.01797,
2001-04-09, 03:07:01,VALID,915.924,VALID,0,VALID,97.2943,VALID,0,VALID,18.8102,VALID,199,VALID,0.857264,
2001-04-09, 03:08:00,VALID,915.919,VALID,0,VALID,97.3515,VALID,-0.0679233,VALID,18.7972,VALID,209,VALID,0.754883,
2001-04-09, 03:09:00,VALID,915.913,VALID,0,VALID,97.4138,VALID,-0.0339617,VALID,18.8039,VALID,196,VALID,0.859175,
2001-04-09, 03:10:01,VALID,915.895,VALID,0,VALID,97.3324,VALID,-0.0339617,VALID,18.7746,VALID,209,VALID,1.34108,
2001-04-09, 03:11:00,VALID,915.885,VALID,0,VALID,97.3184,VALID,-0.0509425,VALID,18.7878,VALID,199,VALID,1.21254,
2001-04-09, 03:12:00,VALID,915.856,VALID,0,VALID,97.3235,VALID,-0.0679233,VALID,18.7714,VALID,186,VALID,1.08224,
2001-04-09, 03:13:00,VALID,915.837,VALID,0,VALID,97.3833,VALID,-0.0679233,VALID,18.7917,VALID,195,VALID,1.03065,
2001-04-09, 03:14:00,VALID,915.818,VALID,0,VALID,97.5015,VALID,-0.0509425,VALID,18.8044,VALID,195,VALID,1.25645,
2001-04-09, 03:15:01,VALID,915.798,VALID,0,VALID,97.5422,VALID,-0.0339617,VALID,18.7908,VALID,187,VALID,1.02914,
2001-04-09, 03:16:00,VALID,915.793,VALID,0,VALID,97.6198,VALID,-0.0849042,VALID,18.7977,VALID,199,VALID,1.18242,
2001-04-09, 03:17:00,VALID,915.787,VALID,0,VALID,97.6948,VALID,-0.101885,VALID,18.7943,VALID,201,VALID,1.24399,
2001-04-09, 03:18:01,VALID,915.784,VALID,0,VALID,97.7228,VALID,-0.0339617,VALID,18.8005,VALID,187,VALID,1.01706,
2001-04-09, 03:19:00,VALID,915.78,VALID,0,VALID,97.733,VALID,-0.0169808,VALID,18.8005,VALID,194,VALID,0.579327,
2001-04-09, 03:20:00,VALID,915.784,VALID,0,VALID,97.7203,VALID,-0.0679233,VALID,18.8037,VALID,206,VALID,0.869655,
2001-04-09, 03:21:00,VALID,915.786,VALID,0,VALID,97.7063,VALID,-0.0509425,VALID,18.8243,VALID,194,VALID,0.869591,
2001-04-09, 03:22:00,VALID,915.798,VALID,0,VALID,97.658,VALID,0.0169808,VALID,18.8002,VALID,210,VALID,1.07461,
2001-04-09, 03:23:01,VALID,915.805,VALID,0,VALID,97.6758,VALID,0.0509425,VALID,18.809,VALID,202,VALID,1.02449,
2001-04-09, 03:24:00,VALID,915.802,VALID,0,VALID,97.7317,VALID,0.0339617,VALID,18.8187,VALID,190,VALID,1.16426,
2001-04-09, 03:25:00,VALID,915.794,VALID,0,VALID,97.85,VALID,0.0339617,VALID,18.8254,VALID,199,VALID,1.20072,
2001-04-09, 03:26:01,VALID,915.771,VALID,0,VALID,97.9771,VALID,0.0679233,VALID,18.8152,VALID,201,VALID,1.17167,
2001-04-09, 03:27:00,VALID,915.769,VALID,0,VALID,98.0496,VALID,0.0509425,VALID,18.8023,VALID,210,VALID,1.36979,
2001-04-09, 03:28:00,VALID,915.768,VALID,0,VALID,98.0852,VALID,0.0339617,VALID,18.7829,VALID,225,VALID,1.33409,
2001-04-09, 03:29:00,VALID,915.765,VALID,0,VALID,98.117,VALID,0.0339617,VALID,18.7737,VALID,223,VALID,0.71254,
2001-04-09, 03:30:00,VALID,915.751,VALID,0,VALID,98.1463,VALID,0.0509425,VALID,18.7605,VALID,223,VALID,0.968555,
2001-04-09, 03:31:01,VALID,915.754,VALID,0,VALID,98.1742,VALID,0.0509425,VALID,18.7608,VALID,216,VALID,1.27639,
2001-04-09, 03:32:00,VALID,915.747,VALID,0,VALID,98.1602,VALID,0.0169808,VALID,18.7509,VALID,208,VALID,0.972852,
2001-04-09, 03:33:00,VALID,915.746,VALID,0,VALID,98.1463,VALID,0.0339617,VALID,18.7312,VALID,207,VALID,0.998197,
2001-04-09, 03:34:01,VALID,915.738,VALID,0,VALID,98.1272,VALID,0.0849042,VALID,18.7409,VALID,214,VALID,0.975123,
2001-04-09, 03:35:00,VALID,915.727,VALID,0,VALID,98.1157,VALID,0.0849042,VALID,18.7379,VALID,220,VALID,1.02063,
2001-04-09, 03:36:00,VALID,915.717,VALID,0.2,VALID,98.07,VALID,0.0339617,VALID,18.7444,VALID,222,VALID,1.05222,